2016-05-11 00:05:43 r, 20.39m,0000000000Hz,0000776391c,0000001.685s, 023.2C,00002191
2016-05-11 00:15:44 r, 20.08m,0000000001Hz,0000588663c,0000001.277s, 023.2C,00002191
2016-05-11 00:25:44 r, 20.12m,0000000000Hz,0000614344c,0000001.333s, 023.2C,00002191
2016-05-11 00:35:44 r, 19.95m,0000000000Hz,0000518569c,0000001.125s, 023.2C,00002191
2016-05-11 00:45:44 r, 19.98m,0000000001Hz,0000539569c,0000001.171s, 023.2C,00002191
2016-05-11 00:55:45 r, 19.96m,0000000000Hz,0000524944c,0000001.139s, 023.2C,00002191
2016-05-11 01:05:43 r, 20.24m,0000000000Hz,0000675128c,0000001.465s, 023.2C,00002191
2016-05-11 01:15:44 r, 20.24m,0000000001Hz,0000677721c,0000001.471s, 023.2C,00002191
2016-05-11 01:25:44 r, 19.98m,0000000001Hz,0000540299c,0000001.173s, 023.2C,00002191
2016-05-11 01:35:44 r, 19.83m,0000000001Hz,0000467296c,0000001.014s, 023.2C,00002191
2016-05-11 01:45:44 r, 19.97m,0000000001Hz,0000530021c,0000001.150s, 023.2C,00002191
2016-05-11 01:55:46 r, 19.84m,0000000001Hz,0000471352c,0000001.023s, 023.2C,00002191
2016-05-11 02:05:44 r, 19.77m,0000000001Hz,0000441435c,0000000.958s, 023.2C,00002191
2016-05-11 02:15:43 r, 19.93m,0000000001Hz,0000513755c,0000001.115s, 023.2C,00002191
2016-05-11 02:25:45 r, 19.88m,0000000001Hz,0000491362c,0000001.066s, 023.2C,00002191
2016-05-11 02:35:43 r, 20.02m,0000000000Hz,0000555807c,0000001.206s, 022.8C,00002191
2016-05-11 02:45:44 r, 20.39m,0000000001Hz,0000771955c,0000001.675s, 022.5C,00002191
2016-05-11 02:55:45 r, 20.07m,0000000000Hz,0000584573c,0000001.269s, 022.5C,00002191
2016-05-11 03:05:44 r, 19.98m,0000000001Hz,0000533034c,0000001.157s, 022.5C,00002191
2016-05-11 03:15:44 r, 19.84m,0000000001Hz,0000471499c,0000001.023s, 022.8C,00002191
2016-05-11 03:25:44 r, 19.88m,0000000001Hz,0000485853c,0000001.054s, 022.8C,00002191
2016-05-11 03:35:44 r, 20.09m,0000000001Hz,0000593933c,0000001.289s, 022.8C,00002191
2016-05-11 03:45:44 r, 19.89m,0000000001Hz,0000492417c,0000001.069s, 022.8C,00002191
2016-05-11 03:55:44 r, 19.80m,0000000001Hz,0000453216c,0000000.984s, 022.8C,00002191
2016-05-11 04:05:43 r, 19.97m,0000000001Hz,0000530203c,0000001.151s, 022.8C,00002191
2016-05-11 04:15:44 r, 19.74m,0000000001Hz,0000429757c,0000000.933s, 022.8C,00002191
2016-05-11 04:25:44 r, 19.51m,0000000001Hz,0000350183c,0000000.760s, 022.8C,00002191
2016-05-11 04:35:44 r, 19.04m,0000000002Hz,0000224821c,0000000.488s, 022.8C,00002191
2016-05-11 04:45:44 r, 18.28m,0000000004Hz,0000112266c,0000000.244s, 022.8C,00002191
2016-05-11 04:55:44 r, 16.62m,0000000019Hz,0000024203c,0000000.053s, 022.8C,00002191
2016-05-11 05:05:44 r, 15.48m,0000000053Hz,0000008522c,0000000.018s, 023.2C,00002191
2016-05-11 05:15:44 r, 14.00m,0000000212Hz,0000000000c,0000000.000s, 023.2C,00002191
2016-05-11 05:25:44 r, 12.23m,0000001087Hz,0000000000c,0000000.000s, 023.2C,00002191
2016-05-11 05:35:44 r, 10.67m,0000004564Hz,0000000000c,0000000.000s, 023.2C,00002191
2016-05-11 05:45:44 r, 09.35m,0000015367Hz,0000000000c,0000000.000s, 023.2C,00002191
2016-05-11 05:55:44 r, 08.50m,0000033746Hz,0000000000c,0000000.000s, 023.2C,00002191
2016-05-11 06:05:43 r, 07.56m,0000080561Hz,0000000000c,0000000.000s, 023.2C,00002191
2016-05-11 06:15:44 r, 06.79m,0000163413Hz,0000000000c,0000000.000s, 023.2C,00002191
2016-05-11 06:25:44 r, 06.10m,0000307651Hz,0000000000c,0000000.000s, 023.5C,00002191
2016-05-11 06:35:44 r, 00.00m,0000595663Hz,0000000000c,0000000.000s, 023.5C,00002191
2016-05-11 06:45:44 r, 00.00m,0000539763Hz,0000000000c,0000000.000s, 023.8C,00002191
2016-05-11 06:55:44 r, 00.00m,0000469767Hz,0000000000c,0000000.000s, 023.8C,00002191
2016-05-11 07:05:44 r, 00.00m,0000538237Hz,0000000000c,0000000.000s, 024.1C,00002191
2016-05-11 07:15:44 r, 00.00m,0000595656Hz,0000000000c,0000000.000s, 023.8C,00002191
2016-05-11 07:25:44 r, 00.00m,0000595533Hz,0000000000c,0000000.000s, 024.1C,00002191
2016-05-11 07:35:44 r, 00.00m,0000595461Hz,0000000000c,0000000.000s, 024.4C,00002191
2016-05-11 07:45:44 r, 00.00m,0000595430Hz,0000000000c,0000000.000s, 024.4C,00002191
2016-05-11 07:55:44 r, 00.00m,0000595566Hz,0000000000c,0000000.000s, 024.8C,00002191
2016-05-11 08:05:44 r, 00.00m,0000595497Hz,0000000000c,0000000.000s, 025.1C,00002191
2016-05-11 08:15:44 r, 00.00m,0000595508Hz,0000000000c,0000000.000s, 025.1C,00002191
2016-05-11 08:25:44 r, 00.00m,0000595480Hz,0000000000c,0000000.000s, 025.1C,00002191
2016-05-11 08:35:44 r, 00.00m,0000595497Hz,0000000000c,0000000.000s, 025.1C,00002191
2016-05-11 08:45:44 r, 00.00m,0000595485Hz,0000000000c,0000000.000s, 025.4C,00002191
2016-05-11 08:55:44 r, 00.00m,0000595476Hz,0000000000c,0000000.000s, 025.4C,00002191
2016-05-11 09:05:44 r, 00.00m,0000595496Hz,0000000000c,0000000.000s, 025.7C,00002191
2016-05-11 09:15:44 r, 00.00m,0000595423Hz,0000000000c,0000000.000s, 025.7C,00002191
2016-05-11 09:25:44 r, 00.00m,0000595350Hz,0000000000c,0000000.000s, 025.7C,00002191
2016-05-11 09:35:44 r, 00.00m,0000595291Hz,0000000000c,0000000.000s, 026.7C,00002191
2016-05-11 09:45:44 r, 00.00m,0000595208Hz,0000000000c,0000000.000s, 027.0C,00002191
2016-05-11 09:55:44 r, 00.00m,0000595204Hz,0000000000c,0000000.000s, 027.3C,00002191
2016-05-11 10:05:44 r, 00.00m,0000595202Hz,0000000000c,0000000.000s, 028.3C,00002191
2016-05-11 10:15:44 r, 00.00m,0000595221Hz,0000000000c,0000000.000s, 028.0C,00002191
2016-05-11 10:25:44 r, 00.00m,0000595240Hz,0000000000c,0000000.000s, 028.0C,00002191
2016-05-11 10:35:44 r, 00.00m,0000595185Hz,0000000000c,0000000.000s, 028.6C,00002191
2016-05-11 10:45:44 r, 00.00m,0000595121Hz,0000000000c,0000000.000s, 029.3C,00002191
2016-05-11 10:55:44 r, 00.00m,0000594836Hz,0000000000c,0000000.000s, 030.2C,00002191
2016-05-11 11:05:44 r, 00.00m,0000594835Hz,0000000000c,0000000.000s, 030.9C,00002191
2016-05-11 11:15:44 r, 00.00m,0000594891Hz,0000000000c,0000000.000s, 030.9C,00002191
2016-05-11 11:25:44 r, 00.00m,0000595104Hz,0000000000c,0000000.000s, 030.6C,00002191
2016-05-11 11:35:44 r, 00.00m,0000594944Hz,0000000000c,0000000.000s, 030.2C,00002191
2016-05-11 11:45:44 r, 00.00m,0000595114Hz,0000000000c,0000000.000s, 029.6C,00002191
2016-05-11 11:55:44 r, 00.00m,0000595178Hz,0000000000c,0000000.000s, 029.3C,00002191
2016-05-11 12:05:44 r, 00.00m,0000595178Hz,0000000000c,0000000.000s, 029.3C,00002191
2016-05-11 12:15:44 r, 00.00m,0000595181Hz,0000000000c,0000000.000s, 028.6C,00002191
2016-05-11 12:25:44 r, 00.00m,0000595201Hz,0000000000c,0000000.000s, 028.0C,00002191
2016-05-11 12:35:45 r, 00.00m,0000595199Hz,0000000000c,0000000.000s, 027.3C,00002191
2016-05-11 12:45:44 r, 00.00m,0000595201Hz,0000000000c,0000000.000s, 026.4C,00002191
2016-05-11 12:55:44 r, 00.00m,0000595221Hz,0000000000c,0000000.000s, 026.4C,00002191
2016-05-11 13:05:44 r, 00.00m,0000595202Hz,0000000000c,0000000.000s, 027.0C,00002191
2016-05-11 13:15:44 r, 00.00m,0000595194Hz,0000000000c,0000000.000s, 027.7C,00002191
2016-05-11 13:25:44 r, 00.00m,0000594887Hz,0000000000c,0000000.000s, 029.9C,00002191
2016-05-11 13:35:45 r, 00.00m,0000594796Hz,0000000000c,0000000.000s, 031.2C,00002191
2016-05-11 13:45:44 r, 00.00m,0000594868Hz,0000000000c,0000000.000s, 030.6C,00002191
2016-05-11 13:55:44 r, 00.00m,0000594873Hz,0000000000c,0000000.000s, 030.2C,00002191
2016-05-11 14:05:44 r, 00.00m,0000594724Hz,0000000000c,0000000.000s, 030.9C,00002191
2016-05-11 14:15:44 r, 00.00m,0000594665Hz,0000000000c,0000000.000s, 031.9C,00002191
2016-05-11 14:25:44 r, 00.00m,0000594902Hz,0000000000c,0000000.000s, 030.9C,00002191
2016-05-11 14:35:44 r, 00.00m,0000594424Hz,0000000000c,0000000.000s, 032.2C,00002191
2016-05-11 14:45:44 r, 00.00m,0000594008Hz,0000000000c,0000000.000s, 036.0C,00002191
2016-05-11 14:55:44 r, 00.00m,0000594018Hz,0000000000c,0000000.000s, 036.0C,00002191
2016-05-11 15:05:44 r, 00.00m,0000593681Hz,0000000000c,0000000.000s, 039.0C,00002191
2016-05-11 15:15:44 r, 00.00m,0000593359Hz,0000000000c,0000000.000s, 041.5C,00002191
2016-05-11 15:25:44 r, 00.00m,0000593482Hz,0000000000c,0000000.000s, 040.9C,00002191
2016-05-11 15:35:44 r, 00.00m,0000593144Hz,0000000000c,0000000.000s, 042.8C,00002191
2016-05-11 15:45:44 r, 00.00m,0000593668Hz,0000000000c,0000000.000s, 039.6C,00002191
2016-05-11 15:55:44 r, 00.00m,0000594211Hz,0000000000c,0000000.000s, 036.4C,00002191
2016-05-11 16:05:44 r, 00.00m,0000594524Hz,0000000000c,0000000.000s, 033.5C,00002191
2016-05-11 16:15:44 r, 00.00m,0000594934Hz,0000000000c,0000000.000s, 031.2C,00002191
2016-05-11 16:25:44 r, 00.00m,0000595163Hz,0000000000c,0000000.000s, 029.6C,00002191
2016-05-11 16:35:44 r, 00.00m,0000595199Hz,0000000000c,0000000.000s, 028.0C,00002191
2016-05-11 16:45:44 r, 00.00m,0000595198Hz,0000000000c,0000000.000s, 027.7C,00002191
2016-05-11 16:55:45 r, 00.00m,0000595208Hz,0000000000c,0000000.000s, 027.3C,00002191
2016-05-11 17:05:45 r, 00.00m,0000595202Hz,0000000000c,0000000.000s, 027.0C,00002191
2016-05-11 17:15:44 r, 00.00m,0000595205Hz,0000000000c,0000000.000s, 027.0C,00002191
2016-05-11 17:25:44 r, 00.00m,0000595236Hz,0000000000c,0000000.000s, 027.0C,00002191
2016-05-11 17:35:45 r, 00.00m,0000595206Hz,0000000000c,0000000.000s, 027.0C,00002191
2016-05-11 17:45:44 r, 00.00m,0000595219Hz,0000000000c,0000000.000s, 027.0C,00002191
2016-05-11 17:55:44 r, 00.00m,0000595212Hz,0000000000c,0000000.000s, 027.0C,00002191
2016-05-11 18:05:44 r, 00.00m,0000587853Hz,0000000000c,0000000.000s, 026.7C,00002191
2016-05-11 18:15:44 r, 06.49m,0000213748Hz,0000000000c,0000000.000s, 026.4C,00002191
2016-05-11 18:25:44 r, 06.32m,0000251676Hz,0000000000c,0000000.000s, 026.4C,00002191
2016-05-11 18:35:45 r, 00.00m,0000595419Hz,0000000000c,0000000.000s, 026.1C,00002191
2016-05-11 18:45:44 r, 00.00m,0000595373Hz,0000000000c,0000000.000s, 026.4C,00002191
2016-05-11 18:55:44 r, 00.00m,0000595405Hz,0000000000c,0000000.000s, 026.7C,00002191
2016-05-11 19:05:44 r, 00.00m,0000595253Hz,0000000000c,0000000.000s, 026.7C,00002191
2016-05-11 19:15:44 r, 00.00m,0000542638Hz,0000000000c,0000000.000s, 026.4C,00002191
2016-05-11 19:25:44 r, 00.00m,0000595346Hz,0000000000c,0000000.000s, 026.4C,00002191
2016-05-11 19:35:44 r, 00.00m,0000595230Hz,0000000000c,0000000.000s, 027.0C,00002191
2016-05-11 19:45:44 r, 00.00m,0000595202Hz,0000000000c,0000000.000s, 027.0C,00002191
2016-05-11 19:55:44 r, 00.00m,0000595204Hz,0000000000c,0000000.000s, 027.7C,00002191
2016-05-11 20:05:44 r, 00.00m,0000583763Hz,0000000000c,0000000.000s, 028.0C,00002191
2016-05-11 20:15:44 r, 00.00m,0000595222Hz,0000000000c,0000000.000s, 027.3C,00002191
2016-05-11 20:25:44 r, 00.00m,0000518943Hz,0000000000c,0000000.000s, 026.7C,00002191
2016-05-11 20:35:44 r, 06.04m,0000324385Hz,0000000000c,0000000.000s, 026.1C,00002191
2016-05-11 20:45:44 r, 06.65m,0000185185Hz,0000000000c,0000000.000s, 025.7C,00002191
2016-05-11 20:55:44 r, 07.22m,0000109135Hz,0000000000c,0000000.000s, 025.1C,00002191
2016-05-11 21:05:44 r, 08.48m,0000034473Hz,0000000000c,0000000.000s, 024.8C,00002191
2016-05-11 21:15:44 r, 10.37m,0000006046Hz,0000000000c,0000000.000s, 024.8C,00002191
2016-05-11 21:25:44 r, 12.29m,0000001020Hz,0000000000c,0000000.000s, 024.4C,00002191
2016-05-11 21:35:44 r, 14.60m,0000000122Hz,0000003788c,0000000.008s, 024.4C,00002191
2016-05-11 21:45:44 r, 15.52m,0000000052Hz,0000008905c,0000000.019s, 024.4C,00002191
2016-05-11 21:55:44 r, 17.13m,0000000012Hz,0000039090c,0000000.085s, 024.1C,00002191
2016-05-11 22:05:44 r, 18.22m,0000000004Hz,0000106469c,0000000.231s, 024.1C,00002191
2016-05-11 22:15:44 r, 17.93m,0000000005Hz,0000081686c,0000000.177s, 024.1C,00002191
2016-05-11 22:25:44 r, 18.81m,0000000003Hz,0000181767c,0000000.394s, 023.8C,00002191
2016-05-11 22:35:44 r, 19.76m,0000000001Hz,0000437611c,0000000.950s, 023.2C,00002191
2016-05-11 22:45:44 r, 19.63m,0000000001Hz,0000387546c,0000000.841s, 022.5C,00002191
2016-05-11 22:55:44 r, 19.55m,0000000001Hz,0000361809c,0000000.785s, 022.2C,00002191
2016-05-11 23:05:44 r, 19.77m,0000000001Hz,0000440780c,0000000.957s, 022.2C,00002191
2016-05-11 23:15:44 r, 19.71m,0000000001Hz,0000418444c,0000000.908s, 022.2C,00002191
2016-05-11 23:25:44 r, 19.72m,0000000001Hz,0000421178c,0000000.914s, 022.2C,00002191
2016-05-11 23:35:44 r, 19.78m,0000000001Hz,0000443513c,0000000.962s, 022.2C,00002191
2016-05-11 23:45:44 r, 19.94m,0000000000Hz,0000515690c,0000001.119s, 022.2C,00002191
2016-05-11 23:55:44 r, 20.71m,0000000000Hz,0001038383c,0000002.253s, 021.9C,00002191
